Weather in Voylovo

Russia / Kaluga Oblast     53°48′55″N   34°32′42″E
temp.,
°C
wind,
m/s
gust,
m/s
humid.,
%
clouds,
%
prec.,
mm/h
press.,
hPa
HPBL,
m
13 april, tue
tue1300:00+10ese31387100 0.0 1022318
03:00+9se3108699 0.0 1022208
06:00+8se3890100 0.0 1023123
09:00+13se3670100 0.0 1022233
12:00+17se4853100 0.0 1021989
15:00+20sse594010 0.0 10202015
18:00+17sse495387 0.0 1019339
21:00+13s2572100 0.0 1019112
14 april, wed
wed1400:00+11ese2582100 0.0 101998
03:00+11sse398227 0.0 1018348
06:00+10sse2692100 0.0 1018206
09:00+11s3684100 0.0 1019511
12:00+15s3460100 0.1 10181332
15:00+15sse2456100 0.3 10171402
18:00+14se2267100 0.1 101629
21:00+11ene1177100 0.1 101710
15 april, thu
thu1500:00+10n2283100 0.0 101633
03:00+10nnw1186100 0.3 101510
06:00+9e259299 0.1 1015104
09:00+11ese2877100 0.1 1015326
12:00+9e2691100 1.0 1015314
15:00+9ne2694100 3.6 1014330
18:00+9e379372 0.6 1014392
21:00+7ene229596 0.6 101435
16 april, fri
fri1600:00+9e399671 1.1 1014342
03:00+7ene399626 1.1 1014231
06:00+7ene31097100 0.2 1014338
09:00+8e3895100 1.3 1015594
12:00+12e467792 0.8 1015965
15:00+13e3672100 2.1 1015986
18:00+12ese2578100 1.7 1015158
21:00+8ese11885 2.0 101710
17 april, sat
sat1700:00+7ne11936 0.1 101820
03:00+6ese249698 0.1 101969
06:00+6ese119496 0.0 102027
09:00+9nne2493100 0.2 1020288
12:00+11ne4583100 0.2 1022838
15:00+12ne4986100 0.5 1021903
18:00+9ssw3694100 4.6 1022311
21:00+8nne1398100 7.3 1023129